Back to catalog

SICH 2

AliveScienceSSO
NORAD 37794·PAYLOAD·🇺🇦 Ukraine

Launched Aug 17, 2011 from Dombarovsky

Loading…

Next Passes (next 24 hours)

TLE

FreshSource: Space-Track

Epoch: Sep 14, 2026, 10:43 UTC

1 37794U 11044G   26257.44680502  .00000411  00000-0  83855-4 0  9990
2 37794  97.8488 233.9806 0010646 244.2836 284.1581 14.65733707804535

Track SICH 2 in real time with AllMySat

Download on the App Store